| time (UTC) | temp C | wind direction | speed KPH | gust KPH | rain 1hr cm | rain 24hr cm | rain mn cm | humidity % | barometer mb |
| 20260504081918 | 11 | 225 | 25.7 | 41.8 | 0.00 | 0.00 | 0.00 | 48 | 987.7 |
| 20260504081418 | 11 | 203 | 22.5 | 30.6 | 0.00 | 0.00 | 0.00 | 48 | 987.7 |
| 20260504080920 | 11 | 225 | 27.4 | 37.0 | 0.00 | 0.00 | 0.00 | 48 | 987.9 |
| 20260504080420 | 11 | 203 | 25.7 | 38.6 | 0.00 | 0.00 | 0.00 | 48 | 987.9 |
| 20260504050418 | 11 | 225 | 16.1 | 25.7 | 0.00 | 0.00 | 0.00 | 48 | 990.3 |
| 20260504045918 | 11 | 203 | 20.9 | 33.8 | 0.00 | 0.00 | 0.00 | 48 | 990.4 |
| 20260504045418 | 11 | 225 | 19.3 | 35.4 | 0.00 | 0.00 | 0.00 | 48 | 990.4 |
| 20260504044939 | 11 | 225 | 24.1 | 35.4 | 0.00 | 0.00 | 0.00 | 49 | 990.4 |
| 20260504044438 | 11 | 203 | 19.3 | 29.0 | 0.00 | 0.00 | 0.00 | 49 | 990.5 |
| 20260504043918 | 11 | 203 | 22.5 | 30.6 | 0.00 | 0.00 | 0.00 | 49 | 990.6 |
| 20260504043418 | 11 | 203 | 17.7 | 32.2 | 0.00 | 0.00 | 0.00 | 49 | 990.5 |
| 20260504042958 | 11 | 203 | 19.3 | 32.2 | 0.00 | 0.00 | 0.00 | 49 | 990.5 |
| 20260504042438 | 11 | 203 | 17.7 | 27.4 | 0.00 | 0.00 | 0.00 | 49 | 990.6 |
| 20260504041918 | 11 | 203 | 17.7 | 25.7 | 0.00 | 0.00 | 0.00 | 49 | 990.7 |
| 20260504041418 | 11 | 225 | 16.1 | 24.1 | 0.00 | 0.00 | 0.00 | 50 | 990.7 |
| 20260504040921 | 11 | 203 | 12.9 | 17.7 | 0.00 | 0.00 | 0.00 | 50 | 990.7 |
| 20260504040458 | 11 | 203 | 12.9 | 22.5 | 0.00 | 0.00 | 0.00 | 50 | 990.8 |
| 20260504035939 | 11 | 203 | 11.3 | 24.1 | 0.00 | 0.00 | 0.00 | 50 | 990.9 |
| 20260504035420 | 11 | 203 | 16.1 | 22.5 | 0.00 | 0.00 | 0.00 | 51 | 991.0 |
| 20260504034920 | 11 | 203 | 12.9 | 17.7 | 0.00 | 0.00 | 0.00 | 51 | 991.0 |
| 20260504034420 | 11 | 180 | 8.0 | 14.5 | 0.00 | 0.00 | 0.00 | 51 | 991.1 |
| 20260504033920 | 11 | 203 | 14.5 | 22.5 | 0.00 | 0.00 | 0.00 | 51 | 991.1 |
| 20260504033420 | 11 | 225 | 12.9 | 25.7 | 0.00 | 0.00 | 0.00 | 52 | 991.2 |
| 20260504032920 | 11 | 180 | 9.7 | 16.1 | 0.00 | 0.00 | 0.00 | 51 | 991.3 |
| 20260504032438 | 11 | 180 | 12.9 | 22.5 | 0.00 | 0.00 | 0.00 | 52 | 991.3 |
| 20260504031940 | 11 | 203 | 9.7 | 19.3 | 0.00 | 0.00 | 0.00 | 51 | 991.3 |
| 20260504031438 | 11 | 203 | 9.7 | 12.9 | 0.00 | 0.00 | 0.00 | 51 | 991.4 |
| 20260504030921 | 11 | 203 | 9.7 | 14.5 | 0.00 | 0.00 | 0.00 | 51 | 991.5 |
| 20260504030418 | 11 | 203 | 8.0 | 12.9 | 0.00 | 0.00 | 0.00 | 51 | 991.6 |
| 20260504025918 | 11 | 203 | 11.3 | 14.5 | 0.00 | 0.00 | 0.00 | 51 | 991.7 |
| 20260504025418 | 11 | 180 | 11.3 | 20.9 | 0.00 | 0.00 | 0.00 | 51 | 991.7 |
| 20260504024918 | 11 | 203 | 9.7 | 17.7 | 0.00 | 0.00 | 0.00 | 50 | 991.8 |
| 20260504024418 | 11 | 225 | 11.3 | 20.9 | 0.00 | 0.00 | 0.00 | 50 | 991.8 |
| 20260504023918 | 11 | 203 | 9.7 | 16.1 | 0.00 | 0.00 | 0.00 | 50 | 991.9 |
| 20260504023418 | 11 | 203 | 11.3 | 27.4 | 0.00 | 0.00 | 0.00 | 50 | 991.8 |
| 20260504022958 | 11 | 203 | 11.3 | 17.7 | 0.00 | 0.00 | 0.00 | 50 | 991.9 |
| 20260504022418 | 11 | 203 | 11.3 | 16.1 | 0.00 | 0.00 | 0.00 | 50 | 992.0 |
| 20260504021918 | 11 | 203 | 11.3 | 17.7 | 0.00 | 0.00 | 0.00 | 50 | 991.9 |
| 20260504021418 | 11 | 203 | 9.7 | 17.7 | 0.00 | 0.00 | 0.00 | 50 | 991.9 |
| 20260504020938 | 11 | 203 | 16.1 | 24.1 | 0.00 | 0.00 | 0.00 | 50 | 992.0 |
| 20260504020418 | 11 | 203 | 14.5 | 20.9 | 0.00 | 0.00 | 0.00 | 49 | 991.9 |
| 20260504015917 | 11 | 225 | 11.3 | 25.7 | 0.00 | 0.00 | 0.00 | 49 | 992.0 |
| 20260504015419 | 11 | 225 | 17.7 | 22.5 | 0.00 | 0.00 | 0.00 | 48 | 992.0 |
| 20260504014918 | 11 | 203 | 11.3 | 16.1 | 0.00 | 0.00 | 0.00 | 48 | 992.0 |
| 20260504014419 | 12 | 225 | 12.9 | 22.5 | 0.00 | 0.00 | 0.00 | 47 | 991.9 |
| 20260504013918 | 11 | 203 | 14.5 | 22.5 | 0.00 | 0.00 | 0.00 | 47 | 991.9 |
| 20260504013418 | 12 | 225 | 19.3 | 25.7 | 0.00 | 0.00 | 0.00 | 48 | 991.9 |
| 20260504012918 | 12 | 203 | 16.1 | 22.5 | 0.00 | 0.00 | 0.00 | 48 | 991.8 |
| 20260504012418 | 12 | 225 | 20.9 | 24.1 | 0.00 | 0.00 | 0.00 | 47 | 991.9 |
| 20260504011919 | 12 | 225 | 17.7 | 27.4 | 0.00 | 0.00 | 0.00 | 47 | 992.0 |
| 20260504011418 | 12 | 225 | 24.1 | 29.0 | 0.00 | 0.00 | 0.00 | 48 | 992.0 |
| 20260504010918 | 12 | 225 | 22.5 | 25.7 | 0.00 | 0.00 | 0.00 | 47 | 992.0 |
| 20260504010418 | 12 | 225 | 19.3 | 22.5 | 0.00 | 0.00 | 0.00 | 47 | 992.1 |
| 20260504005919 | 12 | 248 | 20.9 | 27.4 | 0.00 | 0.00 | 0.00 | 47 | 992.2 |
| 20260504005417 | 12 | 225 | 24.1 | 30.6 | 0.00 | 0.00 | 0.00 | 47 | 992.0 |
| 20260504004918 | 12 | 248 | 17.7 | 22.5 | 0.00 | 0.00 | 0.00 | 47 | 992.0 |
| 20260504004417 | 12 | 225 | 19.3 | 25.7 | 0.00 | 0.00 | 0.00 | 45 | 992.0 |
| 20260504003918 | 12 | 248 | 22.5 | 25.7 | 0.00 | 0.00 | 0.00 | 47 | 992.1 |
| 20260504003418 | 12 | 225 | 14.5 | 19.3 | 0.00 | 0.00 | 0.00 | 48 | 992.1 |
| 20260504002918 | 12 | 248 | 12.9 | 17.7 | 0.00 | 0.00 | 0.00 | 47 | 992.0 |
| 20260504002437 | 12 | 248 | 20.9 | 24.1 | 0.00 | 0.00 | 0.00 | 47 | 992.0 |
| 20260504001938 | 13 | 225 | 17.7 | 22.5 | 0.00 | 0.00 | 0.00 | 47 | 992.0 |
| 20260504001418 | 13 | 248 | 20.9 | 27.4 | 0.00 | 0.00 | 0.00 | 46 | 991.8 |
| 20260504000919 | 13 | 248 | 16.1 | 24.1 | 0.00 | 0.00 | 0.00 | 46 | 991.8 |
| 20260504000439 | 13 | 248 | 19.3 | 27.4 | 0.00 | 0.00 | 0.00 | 44 | 991.8 |
| 20260503235917 | 14 | 225 | 22.5 | 30.6 | 0.00 | 0.00 | 0.00 | 43 | 991.7 |
| 20260503235439 | 15 | 225 | 25.7 | 32.2 | 0.00 | 0.00 | 0.00 | 35 | 991.5 |
| 20260503234918 | 15 | 225 | 20.9 | 25.7 | 0.00 | 0.00 | 0.00 | 33 | 991.4 |
| 20260503234458 | 15 | 225 | 19.3 | 22.5 | 0.00 | 0.00 | 0.00 | 31 | 991.5 |
| 20260503233917 | 15 | 225 | 19.3 | 25.7 | 0.00 | 0.00 | 0.00 | 31 | 991.4 |
| 20260503233418 | 15 | 225 | 19.3 | 27.4 | 0.00 | 0.00 | 0.00 | 31 | 991.3 |
| 20260503232918 | 15 | 225 | 20.9 | 25.7 | 0.00 | 0.00 | 0.00 | 31 | 991.3 |
| 20260503232418 | 15 | 225 | 24.1 | 27.4 | 0.00 | 0.00 | 0.00 | 32 | 991.4 |
| 20260503231918 | 15 | 225 | 24.1 | 29.0 | 0.00 | 0.00 | 0.00 | 33 | 991.4 |
| 20260503231418 | 15 | 225 | 27.4 | 35.4 | 0.00 | 0.00 | 0.00 | 31 | 991.5 |
| 20260503230918 | 15 | 225 | 25.7 | 30.6 | 0.00 | 0.00 | 0.00 | 32 | 991.5 |
| 20260503230459 | 15 | 225 | 17.7 | 24.1 | 0.00 | 0.00 | 0.00 | 31 | 991.5 |
| 20260503225917 | 16 | 225 | 24.1 | 29.0 | 0.00 | 0.00 | 0.00 | 30 | 991.4 |
| 20260503225418 | 16 | 225 | 24.1 | 29.0 | 0.00 | 0.00 | 0.00 | 29 | 991.5 |
| 20260503224938 | 16 | 248 | 25.7 | 29.0 | 0.00 | 0.00 | 0.00 | 30 | 991.5 |
| 20260503224418 | 16 | 225 | 24.1 | 30.6 | 0.00 | 0.00 | 0.00 | 32 | 991.6 |
| 20260503223918 | 16 | 225 | 24.1 | 32.2 | 0.00 | 0.00 | 0.00 | 29 | 991.6 |
| 20260503223418 | 16 | 225 | 24.1 | 35.4 | 0.00 | 0.00 | 0.00 | 32 | 991.6 |
| 20260503222917 | 16 | 225 | 25.7 | 35.4 | 0.00 | 0.00 | 0.00 | 31 | 991.6 |
| 20260503222418 | 16 | 225 | 25.7 | 32.2 | 0.00 | 0.00 | 0.00 | 31 | 991.7 |
| 20260503221918 | 16 | 225 | 29.0 | 37.0 | 0.00 | 0.00 | 0.00 | 31 | 991.6 |
| 20260503221417 | 16 | 225 | 29.0 | 33.8 | 0.00 | 0.00 | 0.00 | 29 | 991.6 |
| 20260503220918 | 16 | 225 | 25.7 | 32.2 | 0.00 | 0.00 | 0.00 | 31 | 991.6 |
| 20260503220417 | 16 | 225 | 29.0 | 32.2 | 0.00 | 0.00 | 0.00 | 32 | 991.6 |
| 20260503215918 | 16 | 225 | 38.6 | 45.1 | 0.00 | 0.00 | 0.00 | 31 | 991.6 |
| 20260503215418 | 16 | 225 | 29.0 | 37.0 | 0.00 | 0.00 | 0.00 | 30 | 991.7 |
| 20260503214918 | 16 | 248 | 17.7 | 25.7 | 0.00 | 0.00 | 0.00 | 31 | 991.8 |
| 20260503214417 | 16 | 225 | 35.4 | 40.2 | 0.00 | 0.00 | 0.00 | 31 | 991.6 |
| 20260503213917 | 16 | 225 | 32.2 | 43.5 | 0.00 | 0.00 | 0.00 | 29 | 991.5 |
| 20260503213418 | 16 | 225 | 37.0 | 48.3 | 0.00 | 0.00 | 0.00 | 31 | 991.7 |
| 20260503212917 | 16 | 225 | 37.0 | 48.3 | 0.00 | 0.00 | 0.00 | 30 | 991.6 |
| 20260503212417 | 16 | 225 | 29.0 | 37.0 | 0.00 | 0.00 | 0.00 | 30 | 991.8 |
| 20260503211938 | 16 | 225 | 27.4 | 35.4 | 0.00 | 0.00 | 0.00 | 29 | 991.7 |
| 20260503211417 | 16 | 225 | 38.6 | 51.5 | 0.00 | 0.00 | 0.00 | 31 | 991.6 |
| 20260503210918 | 16 | 225 | 40.2 | 53.1 | 0.00 | 0.00 | 0.00 | 29 | 991.8 |
| 20260503210458 | 16 | 225 | 25.7 | 29.0 | 0.00 | 0.00 | 0.00 | 32 | 991.9 |
| 20260503205918 | 16 | 225 | 25.7 | 30.6 | 0.00 | 0.00 | 0.00 | 29 | 991.9 |
| 20260503205437 | 16 | 225 | 20.9 | 29.0 | 0.00 | 0.00 | 0.00 | 30 | 992.0 |
| 20260503204917 | 16 | 225 | 19.3 | 24.1 | 0.00 | 0.00 | 0.00 | 28 | 991.9 |
| 20260503204439 | 16 | 225 | 38.6 | 45.1 | 0.00 | 0.00 | 0.00 | 31 | 991.9 |
| 20260503203917 | 16 | 248 | 20.9 | 29.0 | 0.00 | 0.00 | 0.00 | 30 | 992.1 |
| 20260503203438 | 16 | 225 | 22.5 | 27.4 | 0.00 | 0.00 | 0.00 | 30 | 992.0 |
| 20260503202917 | 16 | 225 | 22.5 | 29.0 | 0.00 | 0.00 | 0.00 | 30 | 992.0 |
| 20260503202457 | 16 | 225 | 16.1 | 20.9 | 0.00 | 0.00 | 0.00 | 29 | 992.2 |
| 20260503201917 | 16 | 225 | 37.0 | 41.8 | 0.00 | 0.00 | 0.00 | 29 | 991.9 |
| 20260503201417 | 16 | 225 | 33.8 | 45.1 | 0.00 | 0.00 | 0.00 | 30 | 992.0 |
| 20260503200917 | 16 | 225 | 33.8 | 43.5 | 0.00 | 0.00 | 0.00 | 30 | 992.1 |
| 20260503200417 | 16 | 225 | 29.0 | 40.2 | 0.00 | 0.00 | 0.00 | 31 | 992.2 |
| 20260503195917 | 16 | 225 | 40.2 | 49.9 | 0.00 | 0.00 | 0.00 | 31 | 992.2 |
| 20260503195417 | 16 | 225 | 35.4 | 43.5 | 0.00 | 0.00 | 0.00 | 30 | 992.2 |
| 20260503194917 | 16 | 225 | 20.9 | 25.7 | 0.00 | 0.00 | 0.00 | 28 | 992.4 |
| 20260503194419 | 16 | 225 | 33.8 | 46.7 | 0.00 | 0.00 | 0.00 | 32 | 992.5 |
| 20260503193917 | 16 | 225 | 30.6 | 33.8 | 0.00 | 0.00 | 0.00 | 30 | 992.5 |
| 20260503193417 | 16 | 248 | 27.4 | 32.2 | 0.00 | 0.00 | 0.00 | 30 | 992.5 |
| 20260503192919 | 16 | 225 | 22.5 | 27.4 | 0.00 | 0.00 | 0.00 | 31 | 992.7 |
| 20260503192419 | 16 | 225 | 24.1 | 30.6 | 0.00 | 0.00 | 0.00 | 28 | 992.8 |
| 20260503191917 | 16 | 225 | 35.4 | 46.7 | 0.00 | 0.00 | 0.00 | 32 | 992.9 |
| 20260503191417 | 16 | 225 | 30.6 | 38.6 | 0.00 | 0.00 | 0.00 | 32 | 992.8 |
| 20260503190940 | 16 | 225 | 33.8 | 45.1 | 0.00 | 0.00 | 0.00 | 32 | 992.9 |
| 20260503190419 | 16 | 225 | 35.4 | 40.2 | 0.00 | 0.00 | 0.00 | 31 | 992.9 |
| 20260503185918 | 16 | 225 | 32.2 | 40.2 | 0.00 | 0.00 | 0.00 | 31 | 993.0 |
| 20260503185419 | 16 | 225 | 30.6 | 40.2 | 0.00 | 0.00 | 0.00 | 31 | 993.2 |
| 20260503184917 | 16 | 225 | 32.2 | 38.6 | 0.00 | 0.00 | 0.00 | 31 | 993.2 |
| 20260503184420 | 16 | 225 | 25.7 | 33.8 | 0.00 | 0.00 | 0.00 | 30 | 993.3 |
| 20260503183917 | 16 | 225 | 35.4 | 41.8 | 0.00 | 0.00 | 0.00 | 33 | 993.4 |
| 20260503183419 | 16 | 225 | 35.4 | 41.8 | 0.00 | 0.00 | 0.00 | 33 | 993.3 |
| 20260503182917 | 16 | 225 | 32.2 | 38.6 | 0.00 | 0.00 | 0.00 | 31 | 993.4 |
| 20260503182418 | 15 | 225 | 40.2 | 48.3 | 0.00 | 0.00 | 0.00 | 31 | 993.4 |
| 20260503181919 | 16 | 225 | 19.3 | 24.1 | 0.00 | 0.00 | 0.00 | 30 | 993.7 |
| 20260503181417 | 15 | 225 | 16.1 | 19.3 | 0.00 | 0.00 | 0.00 | 28 | 993.7 |
| 20260503180938 | 15 | 225 | 22.5 | 25.7 | 0.00 | 0.00 | 0.00 | 28 | 993.8 |
| 20260503180417 | 15 | 248 | 24.1 | 30.6 | 0.00 | 0.00 | 0.00 | 31 | 993.9 |
| 20260503175940 | 15 | 225 | 29.0 | 37.0 | 0.00 | 0.00 | 0.00 | 32 | 994.1 |
| 20260503175439 | 15 | 248 | 27.4 | 32.2 | 0.00 | 0.00 | 0.00 | 31 | 994.0 |
| 20260503174918 | 15 | 225 | 29.0 | 33.8 | 0.00 | 0.00 | 0.00 | 33 | 994.1 |
| 20260503174417 | 15 | 225 | 30.6 | 35.4 | 0.00 | 0.00 | 0.00 | 34 | 994.1 |
| 20260503173917 | 15 | 248 | 17.7 | 22.5 | 0.00 | 0.00 | 0.00 | 31 | 994.2 |
| 20260503173417 | 15 | 225 | 27.4 | 48.3 | 0.00 | 0.00 | 0.00 | 32 | 994.2 |
| 20260503172917 | 15 | 225 | 25.7 | 29.0 | 0.00 | 0.00 | 0.00 | 36 | 994.3 |
| 20260503172417 | 15 | 248 | 12.9 | 14.5 | 0.00 | 0.00 | 0.00 | 34 | 994.4 |
| 20260503171917 | 15 | 248 | 17.7 | 27.4 | 0.00 | 0.00 | 0.00 | 35 | 994.5 |
| 20260503171417 | 15 | 248 | 14.5 | 19.3 | 0.00 | 0.00 | 0.00 | 36 | 994.6 |
| 20260503170917 | 14 | 225 | 16.1 | 22.5 | 0.00 | 0.00 | 0.00 | 34 | 994.6 |
| 20260503170417 | 15 | 225 | 16.1 | 19.3 | 0.00 | 0.00 | 0.00 | 34 | 994.7 |
| 20260503150937 | 12 | 248 | 27.4 | 30.6 | 0.00 | 0.00 | 0.00 | 42 | 995.7 |
| 20260503150417 | 11 | 248 | 16.1 | 22.5 | 0.00 | 0.00 | 0.00 | 40 | 995.8 |
| 20260503130920 | 8 | 225 | 22.5 | 29.0 | 0.00 | 0.00 | 0.00 | 45 | 996.2 |
| 20260503130417 | 8 | 225 | 22.5 | 30.6 | 0.00 | 0.00 | 0.00 | 45 | 996.2 |
| 20260503110419 | 3 | 203 | 9.7 | 12.9 | 0.00 | 0.00 | 0.00 | 56 | 996.3 |